sat.trackr.live / text

‹ back to catalog

STARLINK-36125

NORAD 67036 · 2025-294G

PAYLOAD ACTIVE UNKNOWN

§ Identity

Operator
Country
US
Launch date
2025-12-11
Launch site
AFETR
Launch vehicle
Mass (kg)
RCS (m²)

Purposes: comms

External: N2YO · Heavens-Above · Gunter

§ Orbital elements

Epoch: 2026-05-24T21:22:03.877824Z

Period
94.27 min
Inclination
43.0026°
Eccentricity
0.0001326
Mean motion
15.27574828 rev/d
Perigee alt
482.2 km
Apogee alt
484.0 km
Semi-major
6,861.2 km
B*
5.2993e-4
RAAN
327.6894°
Arg perigee
270.0242°
Mean anomaly
90.0457°
Rev number
2,645

§ Raw data

STARLINK-361251 67036U 25294G   26144.89032266  .00014347  00000+0  52993-3 0  99962 67036  43.0026 327.6894 0001326 270.0242  90.0457 15.27574828 26458

JSON: /api/v1/satellites/67036 · /tle

For live sub-satellite position, see the globe view (requires WebGL).

§ Visibility from observer

Set your observer location to see the next 7 days of passes ≥ 10°. The values pass through the URL so the page stays shareable.

No JS? Fill the form by hand. The geolocation button needs JavaScript.